Regional Weather Roundup
Issued by NWS

Home | Current Version | Previous Version | Graphics & Text | Print | Product List | Glossary On
Versions: 1 2 3 4 5 6 7 8 9 10 11 12 13 14 15 16 17 18 19 20 21 22 23 24 25 26 27 28 29 30 31 32 33 34 35 36 37 38 39 40 41 42 43 44 45 46 47 48 49 50
000
ASUS43 KDMX 291101
RWRIA

WEATHER ROUNDUP FOR IOWA
NATIONAL WEATHER SERVICE DES MOINES IA
600 AM CDT MON MAY 29 2017

NOTE: "FAIR" INDICATES FEW OR NO CLOUDS BELOW 12,000 FEET WITH NO
SIGNIFICANT WEATHER AND/OR OBSTRUCTIONS TO VISIBILITY.

* - THESE STATIONS ARE NOT NWS STATIONS...THUS NOT UNDER NWS
QUALITY CONTROL.  THEY ALSO DO NOT REPORT WEATHER SUCH
AS PRECIPITATION OR FOG.

IAZ001>003-012>014-020>022-031>034-043>046-291200-
   NORTHWEST IOWA

CITY           SKY/WX    TMP DP  RH WIND       PRES   REMARKS
CARROLL *      MOCLDY    55  48  76 W9        29.93R
CHEROKEE *     PTCLDY    46  45  94 S3        29.91R
DENISON *      MOCLDY    46  45  93 CALM      29.96R
LE MARS *      CLEAR     48  45  87 S5        29.93R
ORANGE CITY *  CLEAR     48  45  87 NW5       29.91R
SHELDON *      PTCLDY    50  43  76 W8        29.89R
SIOUX CITY     CLEAR     48  44  86 CALM      29.94R
SPENCER        CLEAR     51  45  79 W12       29.89R
STORM LAKE *   CLEAR     50  43  76 W10       29.91R
$$

IAZ055>058-069>071-079>083-090>094-291200-
   SOUTHWEST IOWA

CITY           SKY/WX    TMP DP  RH WIND       PRES   REMARKS
ATLANTIC *     CLEAR     50  46  87 CALM      29.93S
AUDUBON *      PTCLDY    48  45  87 CALM      29.95R
CLARINDA *     CLOUDY    59  48  67 NW3       29.95S
COUNCIL BLFS * CLEAR     55  46  71 NW8       29.95S
CRESTON *      CLOUDY    57  48  72 NW7       29.94R
HARLAN  *      PTCLDY    50  46  87 CALM      29.98R
LAMONI         CLOUDY    60  45  57 W13       29.91R
RED OAK *      CLOUDY    57  46  67 NW8       29.94R
SHENANDOAH *   CLOUDY    59  50  72 SW6       29.95R
$$

IAZ047>049-059>061-072>074-084-291200-
   CENTRAL IOWA

CITY           SKY/WX    TMP DP  RH WIND       PRES   REMARKS
AMES           PTCLDY    49  47  93 CALM      29.90R
ANKENY *       MOCLDY    54  48  82 W6        29.92R
BOONE *        MOCLDY    54 N/A N/A W7        29.90S
CHARITON *     CLOUDY    57  46  67 W7        29.90R
DES MOINES     CLOUDY    57  48  72 CALM      29.90S
GRINNELL*      MOCLDY    55  47  72 W6        29.90R
KNOXVILLE *    LGT RAIN  55  48  76 W7        29.89R
MARSHALLTOWN   PTCLDY    53  47  79 W8        29.88R
NEWTON *       CLOUDY    57  46  67 W8        29.89R
PELLA *        LGT RAIN  56  50  78 NW3       29.91R
PERRY *        MOCLDY    51  49  90 W6        29.92R
$$

IAZ004>006-015-016-023>025-035-036-291200-
   NORTH CENTRAL IOWA

CITY           SKY/WX    TMP DP  RH WIND       PRES   REMARKS
ALGONA *       CLEAR     54  45  71 NW14      29.87R
CLARION *      CLEAR     50  46  87 W8        29.89R
ESTHERVILLE    CLEAR     49  46  90 W9        29.86R
FORT DODGE *   CLEAR     48  43  81 SW3       29.91R
MASON CITY     CLEAR     50  43  77 W9        29.86R
FOREST CITY *    N/A     50  37  62 NW8       29.85R
WEBSTER CITY * MOCLDY    52  46  82 W9        29.88R
IOWA FALLS *   CLOUDY    55  47  74 W7        29.90R
$$

IAZ007>011-017>019-026>030-037>042-050>054-066-291200-
   NORTHEAST IOWA

CITY           SKY/WX    TMP DP  RH WIND       PRES   REMARKS
CEDAR RAPIDS   MOCLDY    55  49  80 NW7       29.86R
CHARLES CITY * PTCLDY    54  45  71 SW9       29.86R
CLINTON *      LGT RAIN  56  51  84 W8        29.85R
DECORAH *      PTCLDY    52  45  76 VRB7G13   29.82R
DUBUQUE        CLOUDY    54  48  80 W9        29.83R
MONTICELLO *   CLOUDY    57  46  67 W8        29.85R
OELWEIN *      CLOUDY    55  46  71 W9        29.87R
WATERLOO       CLOUDY    57  44  62 W9        29.86R
$$

IAZ064-065-067-068-078-291200-
   EAST CENTRAL IOWA

CITY           SKY/WX    TMP DP  RH WIND       PRES   REMARKS
DAVENPORT      CLOUDY    58  48  69 W9        29.85S
IOWA CITY      PTCLDY    56  48  74 W5        29.87S
MT. PLEASANT * CLOUDY    57  48  73 NW3       29.88R
MUSCATINE *    CLOUDY    57  48  72 CALM      29.86S
QUAD CITIES    CLOUDY    58  48  69 W5        29.85R
$$

IAZ062-063-075>077-085>089-095>099-291200-
   SOUTHEAST IOWA

CITY           SKY/WX    TMP DP  RH WIND       PRES   REMARKS
BURLINGTON     PTCLDY    56  51  84 SW6       29.85S
FAIRFIELD *    CLOUDY    57  48  72 W5        29.88R
FORT MADISON * PTCLDY    57  50  77 SW3       29.87S
KEOKUK *       CLEAR     54  50  87 SW6       29.86S
OSKALOOSA *      N/A     56  49  74 NW6       29.89R
OTTUMWA        CLOUDY    58  47  66 W8        29.88R
$$

ABBREVIATIONS USED IN REMARKS
   TC - TEMPERATURES IN CELSIUS
  WCI - WIND CHILL INDEX
   HX - HEAT INDEX
  VSB - VISIBILITY
$$





USA.gov is the U.S. government's official web portal to all federal, state and local government web resources and services.